<?xml version="1.0"?>
<gpx xmlns="http://www.topografix.com/GPX/1/1" xmlns:xsi="http://www.w3.org/2001/XMLSchema-instance" version="1.1" creator="GPX RubyGem 1.0.0 -- http://dougfales.github.io/gpx/" xsi:schemaLocation="http://www.topografix.com/GPX/1/1 http://www.topografix.com/GPX/1/1/gpx.xsd">
  <metadata>
    <name/>
    <time>2026-05-09T18:51:18+00:00</time>
    <bound minlat="90.0" minlon="180.0" maxlat="-90.0" maxlon="-180.0"/>
  </metadata>
  <trk>
    <name/>
    <trkseg>
      <trkpt lat="50.489861" lon="12.650795">
        <time>1970-01-01T00:00:00+00:00</time>
        <ele>659.0</ele>
      </trkpt>
      <trkpt lat="50.490206" lon="12.650893">
        <time>1970-01-01T00:00:00+00:00</time>
        <ele>659.0</ele>
      </trkpt>
      <trkpt lat="50.490188" lon="12.651023">
        <time>1970-01-01T00:00:00+00:00</time>
        <ele>660.0</ele>
      </trkpt>
      <trkpt lat="50.49009" lon="12.651159">
        <time>1970-01-01T00:00:00+00:00</time>
        <ele>661.0</ele>
      </trkpt>
      <trkpt lat="50.489991" lon="12.651293">
        <time>1970-01-01T00:00:00+00:00</time>
        <ele>663.0</ele>
      </trkpt>
      <trkpt lat="50.489977" lon="12.651312">
        <time>1970-01-01T00:00:00+00:00</time>
        <ele>663.0</ele>
      </trkpt>
      <trkpt lat="50.489731" lon="12.651648">
        <time>1970-01-01T00:00:00+00:00</time>
        <ele>668.0</ele>
      </trkpt>
      <trkpt lat="50.489686" lon="12.651681">
        <time>1970-01-01T00:00:00+00:00</time>
        <ele>668.0</ele>
      </trkpt>
      <trkpt lat="50.488976" lon="12.652216">
        <time>1970-01-01T00:00:00+00:00</time>
        <ele>670.0</ele>
      </trkpt>
      <trkpt lat="50.488537" lon="12.652497">
        <time>1970-01-01T00:00:00+00:00</time>
        <ele>670.0</ele>
      </trkpt>
      <trkpt lat="50.488355" lon="12.652699">
        <time>1970-01-01T00:00:00+00:00</time>
        <ele>674.0</ele>
      </trkpt>
      <trkpt lat="50.488026" lon="12.653164">
        <time>1970-01-01T00:00:00+00:00</time>
        <ele>679.0</ele>
      </trkpt>
      <trkpt lat="50.48773" lon="12.653702">
        <time>1970-01-01T00:00:00+00:00</time>
        <ele>686.0</ele>
      </trkpt>
      <trkpt lat="50.487398" lon="12.654355">
        <time>1970-01-01T00:00:00+00:00</time>
        <ele>690.0</ele>
      </trkpt>
      <trkpt lat="50.48733" lon="12.654472">
        <time>1970-01-01T00:00:00+00:00</time>
        <ele>692.0</ele>
      </trkpt>
      <trkpt lat="50.487269" lon="12.654568">
        <time>1970-01-01T00:00:00+00:00</time>
        <ele>693.0</ele>
      </trkpt>
      <trkpt lat="50.486821" lon="12.655571">
        <time>1970-01-01T00:00:00+00:00</time>
        <ele>694.0</ele>
      </trkpt>
      <trkpt lat="50.486449" lon="12.656575">
        <time>1970-01-01T00:00:00+00:00</time>
        <ele>701.0</ele>
      </trkpt>
      <trkpt lat="50.486165" lon="12.657489">
        <time>1970-01-01T00:00:00+00:00</time>
        <ele>709.0</ele>
      </trkpt>
      <trkpt lat="50.485944" lon="12.658419">
        <time>1970-01-01T00:00:00+00:00</time>
        <ele>716.0</ele>
      </trkpt>
      <trkpt lat="50.485644" lon="12.659372">
        <time>1970-01-01T00:00:00+00:00</time>
        <ele>719.0</ele>
      </trkpt>
      <trkpt lat="50.485258" lon="12.660417">
        <time>1970-01-01T00:00:00+00:00</time>
        <ele>711.0</ele>
      </trkpt>
      <trkpt lat="50.485312" lon="12.660814">
        <time>1970-01-01T00:00:00+00:00</time>
        <ele>706.0</ele>
      </trkpt>
      <trkpt lat="50.485344" lon="12.660947">
        <time>1970-01-01T00:00:00+00:00</time>
        <ele>704.0</ele>
      </trkpt>
      <trkpt lat="50.485816" lon="12.661172">
        <time>1970-01-01T00:00:00+00:00</time>
        <ele>705.0</ele>
      </trkpt>
      <trkpt lat="50.48617" lon="12.661701">
        <time>1970-01-01T00:00:00+00:00</time>
        <ele>704.0</ele>
      </trkpt>
      <trkpt lat="50.486615" lon="12.662701">
        <time>1970-01-01T00:00:00+00:00</time>
        <ele>702.0</ele>
      </trkpt>
      <trkpt lat="50.48679" lon="12.663191">
        <time>1970-01-01T00:00:00+00:00</time>
        <ele>694.0</ele>
      </trkpt>
      <trkpt lat="50.486924" lon="12.663513">
        <time>1970-01-01T00:00:00+00:00</time>
        <ele>690.0</ele>
      </trkpt>
      <trkpt lat="50.486952" lon="12.66358">
        <time>1970-01-01T00:00:00+00:00</time>
        <ele>689.0</ele>
      </trkpt>
      <trkpt lat="50.486957" lon="12.663742">
        <time>1970-01-01T00:00:00+00:00</time>
        <ele>687.0</ele>
      </trkpt>
      <trkpt lat="50.487144" lon="12.664856">
        <time>1970-01-01T00:00:00+00:00</time>
        <ele>675.0</ele>
      </trkpt>
      <trkpt lat="50.487259" lon="12.66516">
        <time>1970-01-01T00:00:00+00:00</time>
        <ele>674.0</ele>
      </trkpt>
      <trkpt lat="50.487351" lon="12.665248">
        <time>1970-01-01T00:00:00+00:00</time>
        <ele>672.0</ele>
      </trkpt>
      <trkpt lat="50.487648" lon="12.665265">
        <time>1970-01-01T00:00:00+00:00</time>
        <ele>668.0</ele>
      </trkpt>
      <trkpt lat="50.48762" lon="12.666044">
        <time>1970-01-01T00:00:00+00:00</time>
        <ele>667.0</ele>
      </trkpt>
      <trkpt lat="50.487584" lon="12.66615">
        <time>1970-01-01T00:00:00+00:00</time>
        <ele>667.0</ele>
      </trkpt>
      <trkpt lat="50.487416" lon="12.666466">
        <time>1970-01-01T00:00:00+00:00</time>
        <ele>667.0</ele>
      </trkpt>
      <trkpt lat="50.487276" lon="12.666661">
        <time>1970-01-01T00:00:00+00:00</time>
        <ele>666.0</ele>
      </trkpt>
      <trkpt lat="50.487197" lon="12.66672">
        <time>1970-01-01T00:00:00+00:00</time>
        <ele>666.0</ele>
      </trkpt>
      <trkpt lat="50.487059" lon="12.666716">
        <time>1970-01-01T00:00:00+00:00</time>
        <ele>667.0</ele>
      </trkpt>
      <trkpt lat="50.486748" lon="12.66666">
        <time>1970-01-01T00:00:00+00:00</time>
        <ele>668.0</ele>
      </trkpt>
      <trkpt lat="50.486301" lon="12.66672">
        <time>1970-01-01T00:00:00+00:00</time>
        <ele>668.0</ele>
      </trkpt>
      <trkpt lat="50.485907" lon="12.666544">
        <time>1970-01-01T00:00:00+00:00</time>
        <ele>668.0</ele>
      </trkpt>
      <trkpt lat="50.485754" lon="12.666367">
        <time>1970-01-01T00:00:00+00:00</time>
        <ele>670.0</ele>
      </trkpt>
      <trkpt lat="50.485671" lon="12.666096">
        <time>1970-01-01T00:00:00+00:00</time>
        <ele>673.0</ele>
      </trkpt>
      <trkpt lat="50.485566" lon="12.665924">
        <time>1970-01-01T00:00:00+00:00</time>
        <ele>677.0</ele>
      </trkpt>
      <trkpt lat="50.485476" lon="12.665848">
        <time>1970-01-01T00:00:00+00:00</time>
        <ele>682.0</ele>
      </trkpt>
      <trkpt lat="50.485408" lon="12.665841">
        <time>1970-01-01T00:00:00+00:00</time>
        <ele>685.0</ele>
      </trkpt>
      <trkpt lat="50.485341" lon="12.666089">
        <time>1970-01-01T00:00:00+00:00</time>
        <ele>687.0</ele>
      </trkpt>
      <trkpt lat="50.485346" lon="12.666108">
        <time>1970-01-01T00:00:00+00:00</time>
        <ele>687.0</ele>
      </trkpt>
      <trkpt lat="50.485346" lon="12.666108">
        <time>1970-01-01T00:00:00+00:00</time>
        <ele>687.0</ele>
      </trkpt>
      <trkpt lat="50.485341" lon="12.666089">
        <time>1970-01-01T00:00:00+00:00</time>
        <ele>687.0</ele>
      </trkpt>
      <trkpt lat="50.485408" lon="12.665841">
        <time>1970-01-01T00:00:00+00:00</time>
        <ele>685.0</ele>
      </trkpt>
      <trkpt lat="50.485476" lon="12.665848">
        <time>1970-01-01T00:00:00+00:00</time>
        <ele>682.0</ele>
      </trkpt>
      <trkpt lat="50.485566" lon="12.665924">
        <time>1970-01-01T00:00:00+00:00</time>
        <ele>677.0</ele>
      </trkpt>
      <trkpt lat="50.485671" lon="12.666096">
        <time>1970-01-01T00:00:00+00:00</time>
        <ele>673.0</ele>
      </trkpt>
      <trkpt lat="50.485754" lon="12.666367">
        <time>1970-01-01T00:00:00+00:00</time>
        <ele>670.0</ele>
      </trkpt>
      <trkpt lat="50.485907" lon="12.666544">
        <time>1970-01-01T00:00:00+00:00</time>
        <ele>668.0</ele>
      </trkpt>
      <trkpt lat="50.486301" lon="12.66672">
        <time>1970-01-01T00:00:00+00:00</time>
        <ele>668.0</ele>
      </trkpt>
      <trkpt lat="50.486748" lon="12.66666">
        <time>1970-01-01T00:00:00+00:00</time>
        <ele>668.0</ele>
      </trkpt>
      <trkpt lat="50.487059" lon="12.666716">
        <time>1970-01-01T00:00:00+00:00</time>
        <ele>667.0</ele>
      </trkpt>
      <trkpt lat="50.487197" lon="12.66672">
        <time>1970-01-01T00:00:00+00:00</time>
        <ele>666.0</ele>
      </trkpt>
      <trkpt lat="50.487276" lon="12.666661">
        <time>1970-01-01T00:00:00+00:00</time>
        <ele>666.0</ele>
      </trkpt>
      <trkpt lat="50.487416" lon="12.666466">
        <time>1970-01-01T00:00:00+00:00</time>
        <ele>667.0</ele>
      </trkpt>
      <trkpt lat="50.487584" lon="12.66615">
        <time>1970-01-01T00:00:00+00:00</time>
        <ele>667.0</ele>
      </trkpt>
      <trkpt lat="50.48762" lon="12.666044">
        <time>1970-01-01T00:00:00+00:00</time>
        <ele>667.0</ele>
      </trkpt>
      <trkpt lat="50.487648" lon="12.665265">
        <time>1970-01-01T00:00:00+00:00</time>
        <ele>668.0</ele>
      </trkpt>
      <trkpt lat="50.487351" lon="12.665248">
        <time>1970-01-01T00:00:00+00:00</time>
        <ele>672.0</ele>
      </trkpt>
      <trkpt lat="50.487259" lon="12.66516">
        <time>1970-01-01T00:00:00+00:00</time>
        <ele>674.0</ele>
      </trkpt>
      <trkpt lat="50.487144" lon="12.664856">
        <time>1970-01-01T00:00:00+00:00</time>
        <ele>675.0</ele>
      </trkpt>
      <trkpt lat="50.486957" lon="12.663742">
        <time>1970-01-01T00:00:00+00:00</time>
        <ele>687.0</ele>
      </trkpt>
      <trkpt lat="50.486952" lon="12.66358">
        <time>1970-01-01T00:00:00+00:00</time>
        <ele>689.0</ele>
      </trkpt>
      <trkpt lat="50.486924" lon="12.663513">
        <time>1970-01-01T00:00:00+00:00</time>
        <ele>690.0</ele>
      </trkpt>
      <trkpt lat="50.48679" lon="12.663191">
        <time>1970-01-01T00:00:00+00:00</time>
        <ele>694.0</ele>
      </trkpt>
      <trkpt lat="50.486615" lon="12.662701">
        <time>1970-01-01T00:00:00+00:00</time>
        <ele>702.0</ele>
      </trkpt>
      <trkpt lat="50.48617" lon="12.661701">
        <time>1970-01-01T00:00:00+00:00</time>
        <ele>704.0</ele>
      </trkpt>
      <trkpt lat="50.485816" lon="12.661172">
        <time>1970-01-01T00:00:00+00:00</time>
        <ele>705.0</ele>
      </trkpt>
      <trkpt lat="50.485344" lon="12.660947">
        <time>1970-01-01T00:00:00+00:00</time>
        <ele>704.0</ele>
      </trkpt>
      <trkpt lat="50.485312" lon="12.660814">
        <time>1970-01-01T00:00:00+00:00</time>
        <ele>706.0</ele>
      </trkpt>
      <trkpt lat="50.485258" lon="12.660417">
        <time>1970-01-01T00:00:00+00:00</time>
        <ele>711.0</ele>
      </trkpt>
      <trkpt lat="50.485644" lon="12.659372">
        <time>1970-01-01T00:00:00+00:00</time>
        <ele>719.0</ele>
      </trkpt>
      <trkpt lat="50.485944" lon="12.658419">
        <time>1970-01-01T00:00:00+00:00</time>
        <ele>716.0</ele>
      </trkpt>
      <trkpt lat="50.486165" lon="12.657489">
        <time>1970-01-01T00:00:00+00:00</time>
        <ele>709.0</ele>
      </trkpt>
      <trkpt lat="50.486449" lon="12.656575">
        <time>1970-01-01T00:00:00+00:00</time>
        <ele>701.0</ele>
      </trkpt>
      <trkpt lat="50.486821" lon="12.655571">
        <time>1970-01-01T00:00:00+00:00</time>
        <ele>694.0</ele>
      </trkpt>
      <trkpt lat="50.487269" lon="12.654568">
        <time>1970-01-01T00:00:00+00:00</time>
        <ele>693.0</ele>
      </trkpt>
      <trkpt lat="50.48733" lon="12.654472">
        <time>1970-01-01T00:00:00+00:00</time>
        <ele>692.0</ele>
      </trkpt>
      <trkpt lat="50.487398" lon="12.654355">
        <time>1970-01-01T00:00:00+00:00</time>
        <ele>690.0</ele>
      </trkpt>
      <trkpt lat="50.48773" lon="12.653702">
        <time>1970-01-01T00:00:00+00:00</time>
        <ele>686.0</ele>
      </trkpt>
      <trkpt lat="50.488026" lon="12.653164">
        <time>1970-01-01T00:00:00+00:00</time>
        <ele>679.0</ele>
      </trkpt>
      <trkpt lat="50.488355" lon="12.652699">
        <time>1970-01-01T00:00:00+00:00</time>
        <ele>674.0</ele>
      </trkpt>
      <trkpt lat="50.488537" lon="12.652497">
        <time>1970-01-01T00:00:00+00:00</time>
        <ele>670.0</ele>
      </trkpt>
      <trkpt lat="50.488976" lon="12.652216">
        <time>1970-01-01T00:00:00+00:00</time>
        <ele>670.0</ele>
      </trkpt>
      <trkpt lat="50.489686" lon="12.651681">
        <time>1970-01-01T00:00:00+00:00</time>
        <ele>668.0</ele>
      </trkpt>
      <trkpt lat="50.489731" lon="12.651648">
        <time>1970-01-01T00:00:00+00:00</time>
        <ele>668.0</ele>
      </trkpt>
      <trkpt lat="50.489977" lon="12.651312">
        <time>1970-01-01T00:00:00+00:00</time>
        <ele>663.0</ele>
      </trkpt>
      <trkpt lat="50.489991" lon="12.651293">
        <time>1970-01-01T00:00:00+00:00</time>
        <ele>663.0</ele>
      </trkpt>
      <trkpt lat="50.49009" lon="12.651159">
        <time>1970-01-01T00:00:00+00:00</time>
        <ele>661.0</ele>
      </trkpt>
      <trkpt lat="50.490188" lon="12.651023">
        <time>1970-01-01T00:00:00+00:00</time>
        <ele>660.0</ele>
      </trkpt>
      <trkpt lat="50.490206" lon="12.650893">
        <time>1970-01-01T00:00:00+00:00</time>
        <ele>659.0</ele>
      </trkpt>
      <trkpt lat="50.489861" lon="12.650795">
        <time>1970-01-01T00:00:00+00:00</time>
        <ele>659.0</ele>
      </trkpt>
    </trkseg>
  </trk>
</gpx>
